Change the Weather History Date:

Wednesday, October 26, 2011

  Actual Average Record
Temperature  
Mean Temperature 56 °F -  
Max Temperature 63 °F 61 °F 71 °F (2004)
Min Temperature 50 °F 45 °F 42 °F (1997)
Degree Days  
Heating Degree Days 8    
Growing Degree Days 6 (Base 50)    
Moisture  
Dew Point 45 °F    
Average Humidity 63    
Maximum Humidity 88    
Minimum Humidity 42    
Precipitation  
Precipitation 0.00 in 0.07 in - ()
Sea Level Pressure  
Sea Level Pressure 30.25 in    
Wind  
Wind Speed 3 mph ()    
Max Wind Speed 9 mph    
Max Gust Speed -    
Visibility 6.2 miles    
Events      
Averages and records for this station are not official NWS values.
T = Trace of Precipitation, MM = Missing Value Source: Averaged Metar Reports

Daily Weather History Graph

Daily Weather History Graph

Search for Another Location

Airport or City:

Trip Planner

Search our weather history database for the weather conditions in past years. The results will help you decide how hot, cold, wet, or windy it might be!

Date:

Astronomy

Oct. 26, 2011 Rise Set
Actual Time 7:50 AM EEST 6:33 PM EEST
Civil Twilight 7:22 AM EEST 7:01 PM EEST
Nautical Twilight 6:50 AM EEST 7:32 PM EEST
Astronomical Twilight 6:18 AM EEST 8:04 PM EEST
Moon 7:14 AM EEST (10/26) 6:01 PM EEST (10/26)
Length of Visible Light 11h 38m
Length of Day
10h 42m
Waning Crescent, 0% of the Moon is Illuminated
Oct 26
Waning Crescent
Oct 26
New
Nov 2
First Quarter
Nov 10
Full
Nov 18
Last Quarter

Hourly Weather History & Observations

Time (EEST) Temp. Dew Point Humidity Pressure Visibility Wind Dir Wind Speed Gust Speed Precip Events Conditions
12:50 AM 51.8 °F 44.6 °F 76% 30.24 in 6.2 mi Variable 3.5 mph - N/A   Mostly Cloudy
1:20 AM 51.8 °F 44.6 °F 76% 30.24 in 6.2 mi Variable 3.5 mph - N/A   Mostly Cloudy
1:50 AM 53.6 °F 44.6 °F 72% 30.24 in 6.2 mi Variable 3.5 mph - N/A   Mostly Cloudy
2:20 AM 53.6 °F 44.6 °F 72% 30.24 in 6.2 mi Variable 3.5 mph - N/A   Mostly Cloudy
3:00 AM 54 °F 46 °F 67% 30.26 in 6 mi Calm Calm - -   Partly Cloudy
3:20 AM 53.6 °F 50.0 °F 88% 30.24 in 6.2 mi Calm Calm - N/A   Mostly Cloudy
4:20 AM 53.6 °F 46.4 °F 77% 30.24 in 6.2 mi Calm Calm - N/A   Mostly Cloudy
5:20 AM 53.6 °F 50.0 °F 88% 30.24 in 6.2 mi Calm Calm - N/A   Mostly Cloudy
5:50 AM 53.6 °F 46.4 °F 77% 30.24 in 6.2 mi ESE 4.6 mph - N/A   Mostly Cloudy
6:20 AM 51.8 °F 46.4 °F 82% 30.24 in 6.2 mi East 4.6 mph - N/A   Mostly Cloudy
6:50 AM 51.8 °F 44.6 °F 76% 30.24 in 6.2 mi East 4.6 mph - N/A   Mostly Cloudy
7:20 AM 51.8 °F 44.6 °F 76% 30.24 in 6.2 mi ESE 4.6 mph - N/A   Mostly Cloudy
7:50 AM 51.8 °F 46.4 °F 82% 30.24 in 6.2 mi Calm Calm - N/A   Mostly Cloudy
8:50 AM 51.8 °F 46.4 °F 82% 30.24 in 6.2 mi Variable 3.5 mph - N/A   Mostly Cloudy
9:00 AM 53 °F 46 °F 69% 30.26 in 6 mi 3.5 mph - -   Mostly Cloudy
9:20 AM 53.6 °F 46.4 °F 77% 30.24 in 6.2 mi Variable 3.5 mph - N/A   Mostly Cloudy
9:50 AM 55.4 °F 48.2 °F 77% 30.24 in 6.2 mi Calm Calm - N/A   Mostly Cloudy
10:20 AM 57.2 °F 48.2 °F 72% 30.24 in 6.2 mi Calm Calm - N/A   Mostly Cloudy
10:50 AM 60.8 °F 41.0 °F 48% 30.27 in 6.2 mi ESE 6.9 mph - N/A   Mostly Cloudy
11:20 AM 62.6 °F 41.0 °F 45% 30.27 in 6.2 mi East 5.8 mph - N/A   Mostly Cloudy
11:50 AM 62.6 °F 39.2 °F 42% 30.27 in 6.2 mi Variable 3.5 mph - N/A   Mostly Cloudy
12:20 PM 62.6 °F 44.6 °F 52% 30.27 in 6.2 mi West 4.6 mph - N/A   Mostly Cloudy
12:50 PM 60.8 °F 46.4 °F 59% 30.27 in 6.2 mi West 5.8 mph - N/A   Mostly Cloudy
1:20 PM 60.8 °F 44.6 °F 55% 30.27 in 6.2 mi NW 4.6 mph - N/A   Mostly Cloudy
1:50 PM 60.8 °F 48.2 °F 63% 30.27 in 6.2 mi WSW 6.9 mph - N/A   Mostly Cloudy
2:20 PM 60.8 °F 46.4 °F 59% 30.27 in 6.2 mi SW 5.8 mph - N/A   Mostly Cloudy
2:50 PM 60.8 °F 46.4 °F 59% 30.27 in 6.2 mi Variable 3.5 mph - N/A   Mostly Cloudy
3:00 PM 61 °F 46 °F 48% 30.27 in 6 mi 3.5 mph - -   Partly Cloudy
3:20 PM 60.8 °F 44.6 °F 55% 30.27 in 6.2 mi Calm Calm - N/A   Mostly Cloudy
3:50 PM 62.6 °F 41.0 °F 45% 30.24 in 6.2 mi ESE 5.8 mph - N/A   Mostly Cloudy
4:20 PM 62.6 °F 41.0 °F 45% 30.24 in 6.2 mi ESE 5.8 mph - N/A   Mostly Cloudy
4:50 PM 62.6 °F 44.6 °F 52% 30.24 in 6.2 mi Variable 3.5 mph - N/A   Mostly Cloudy
5:20 PM 60.8 °F 44.6 °F 55% 30.24 in 6.2 mi Variable 2.3 mph - N/A   Mostly Cloudy
6:20 PM 60.8 °F 39.2 °F 45% 30.24 in 6.2 mi ESE 4.6 mph - N/A   Mostly Cloudy
7:20 PM 60.8 °F 41.0 °F 48% 30.27 in 6.2 mi East 6.9 mph - N/A   Mostly Cloudy
7:50 PM 59.0 °F 41.0 °F 51% 30.27 in 6.2 mi East 8.1 mph - N/A   Mostly Cloudy
8:50 PM 57.2 °F 41.0 °F 55% 30.27 in 6.2 mi ENE 9.2 mph - N/A   Mostly Cloudy
9:00 PM 58 °F 41 °F 42% 30.28 in 6 mi ENE 9.2 mph - -   Partly Cloudy
9:50 PM 57.2 °F 42.8 °F 59% 30.27 in 6.2 mi East 8.1 mph - N/A   Mostly Cloudy
10:50 PM 57.2 °F 42.8 °F 59% 30.27 in 6.2 mi SSE 6.9 mph - N/A   Mostly Cloudy
11:50 PM 57.2 °F 42.8 °F 59% 30.27 in 6.2 mi ESE 9.2 mph - N/A   Mostly Cloudy